Regional Weather Roundup
Issued by NWS Glasgow, MT

Home | Current Version | Previous Version | Text Only | Print | Product List | Glossary On
Versions: 1 2 3 4 5 6 7 8 9 10 11 12 13 14 15 16 17 18 19 20 21 22 23 24 25 26 27
000
ASUS45 KGGW 241415
RWRGGW
HOURLY REGIONAL WEATHER ROUNDUP FOR NORTHEAST MONTANA
NATIONAL WEATHER SERVICE GLASGOW MONTANA
800 AM MDT SAT JUN 24 2017

NOTE: "FAIR" INDICATES FEW OR NO CLOUDS BELOW 12,000 FEET WITH NO
SIGNIFICANT WEATHER AND/OR OBSTRUCTIONS TO VISISBILITY.

NORTHEAST MONTANA


CITY           SKY/WX    TMP DP  RH WIND       PRES   REMARKS
GLASGOW        SUNNY     54  36  50 SW3       30.30R
PLENTYWOOD       N/A     51  34  52 N6G20       N/A
WOLF POINT     SUNNY     53  36  52 CALM      30.30R
JORDAN           N/A     60  35  39 VRB5      30.29R
WINNETT          N/A     63  33  32 W3G13       N/A
SIDNEY         SUNNY     55  35  47 NW17      30.28R
GLENDIVE       SUNNY     56  33  42 N10       30.29R
MALTA            N/A     51  41  68 SW3         N/A

FORT PECK REPORTS


CITY           SKY/WX    TMP DP  RH WIND       PRES   REMARKS
FORT PECK        N/A     55  38  52 SW2         N/A
THE PINES        N/A     55  37  50 CALM        N/A

SOUTHEAST MONTANA


CITY           SKY/WX    TMP DP  RH WIND       PRES   REMARKS
BILLINGS       MOSUNNY   55  42  61 SW8       30.34R
MILES CITY     SUNNY     59  31  34 NE7       30.29R
BAKER          MOSUNNY   53  32  44 N7        30.29R
LIVINGSTON     SUNNY     49  38  65 W5        30.37R

CENTRAL MONTANA


CITY           SKY/WX    TMP DP  RH WIND       PRES   REMARKS
HAVRE          PTSUNNY   49  40  71 SW3       30.33R
LEWISTOWN      SUNNY     55  42  61 CALM      30.35R
GREAT FALLS    SUNNY     53  40  61 SW7       30.35R
CUT BANK       SUNNY     54  47  77 CALM      30.35R
HELENA         SUNNY     54  39  57 CALM      30.35R
BUTTE          SUNNY     48  36  63 CALM      30.39R
BOZEMAN        SUNNY     54  38  54 CALM      30.37R

WESTERN MONTANA


CITY           SKY/WX    TMP DP  RH WIND       PRES   REMARKS
MISSOULA       SUNNY     56  41  57 VRB3      30.31R
KALISPELL      NOT AVBL

NORTH DAKOTA


CITY           SKY/WX    TMP DP  RH WIND       PRES   REMARKS
WILLISTON      SUNNY     52  38  58 N18G28    30.26R
DICKINSON      SUNNY     52  33  48 NW17G25   30.21R
MINOT          MOSUNNY   50  40  68 NW16      30.15R
BISMARCK       MOSUNNY   55  40  56 NW17G26   30.16R

SOUTHERN SASKATCHEWAN


CITY           SKY/WX    TMP DP  RH WIND       PRES   REMARKS
REGINA         PTSUNNY   46  43  87 NW8       30.27S
ESTEVAN        PTSUNNY   46  41  81 NW18G24   30.23R
SWIFT CURRENT  SUNNY     50  43  76 W9        30.28R





USA.gov is the U.S. government's official web portal to all federal, state and local government web resources and services.